Regional Weather Roundup
Issued by NWS Jackson, KY

Home | Current Version | Previous Version | Text Only | Print | Product List | Glossary Off
Versions: 1 2 3 4 5 6 7 8 9 10 11 12 13 14 15 16 17 18 19 20 21 22 23 24 25 26 27 28 29 30 31 32 33 34 35 36 37 38 39 40 41 42 43 44 45 46 47 48 49 50

000
ASUS43 KJKL 301819
RWRJKL

EAST KENTUCKY HOURLY WEATHER ROUNDUP
NATIONAL WEATHER SERVICE JACKSON KY
200 PM EDT WED JUL 30 2014

NOTE: "FAIR" INDICATES FEW OR NO CLOUDS BELOW 12,000 FEET WITH
NO SIGNIFICANT WEATHER AND/OR OBSTRUCTIONS TO VISIBILITY.

* THESE REPORTS ARE NOT UNDER NWS QUALITY CONTROL AND MAY NOT
  REPORT WEATHER SUCH AS PRECIPITATION AND FOG.

KYZ079-080-083-085-087-088-110-112-115-119-120-301900
...EASTERN KENTUCKY...

CITY           SKY/WX    TMP DP  RH WIND       PRES   REMARKS
JACKSON        PTSUNNY   72  57  59 VRB5      30.12F
6HR MIN TEMP:  54; 6HR MAX TEMP:  75;

LONDON         PTSUNNY   75  56  51 CALM      30.12F
6HR MIN TEMP:  55; 6HR MAX TEMP:  75;

SOMERSET*        N/A     75  57  53 CALM      30.12F
MONTICELLO*      N/A     80  58  46 NE3       30.13F
6HR MIN TEMP:  55; 6HR MAX TEMP:  80;

MIDDLESBORO*     N/A     74  55  50 CALM      30.13S
6HR MIN TEMP:  53; 6HR MAX TEMP:  75;

HARLAN APT*      N/A     77  54  44 MISG      30.13F
BLACK MTN*       N/A     63  52  67 N3          N/A
PIKEVILLE APT* MOSUNNY   70  55  60 CALM      30.13F
BIG SANDY*       N/A     74  58  57 W5        30.12S
6HR MIN TEMP:  55; 6HR MAX TEMP:  74;

MOREHEAD APT*    N/A     73  59  60 W5        30.10F
ASHLAND*       PTSUNNY   75  57  53 W8        30.04F
$$

KYZ035-036-041-042-044-050-067-078-099-301900
...CENTRAL KENTUCKY...

CITY           SKY/WX    TMP DP  RH WIND       PRES   REMARKS
MT STERLING*     N/A     73  59  60 NW3       30.11F
FLEMING/MASON*   N/A     77  60  55 W9        30.08F
DANVILLE*        N/A     73  55  53 NW3       30.11F
RICHMOND*        N/A     75  55  50 NW3       30.10F
LEXINGTON        N/A     78  58  49 SW8       30.10F
6HR MIN TEMP:  61; 6HR MAX TEMP:  79;

FRANKFORT        N/A     78  57  48 W7        30.08F
6HR MIN TEMP:  59; 6HR MAX TEMP:  78;

$$

KYZ091>093-OHZ055-061-077-WVZ005-015-034-035-042-301900
...SOUTHERN OHIO/WEST VIRGINIA...

CITY           SKY/WX    TMP DP  RH WIND       PRES   REMARKS
COVINGTON      PTSUNNY   78  59  51 W12G20    30.06F
COLUMBUS       CLOUDY    77  56  48 SW10G18   30.01F
DAYTON         PTSUNNY   76  58  53 W14G21    30.04F
WILMINGTON     CLOUDY    71  59  65 S13       30.03F
HUNTINGTON       N/A     75  60  59 S8        30.07F
CHARLESTON     PTSUNNY   75  58  55 SW6       30.09F
PINEVILLE*       N/A     74  58  57 MISG      30.18S
BECKLEY          N/A     70  51  51 CALM      30.15F
BLUEFIELD        N/A     71  49  45 VRB3      30.16F
$$

VAZ002-007-008-TNZ017-027-036-066-071-301900
...SOUTHWEST VIRGINIA/EAST TENNESSEE...

CITY           SKY/WX    TMP DP  RH WIND       PRES   REMARKS
WISE*          PTSUNNY   68  50  52 N6        30.18S
JONESVILLE*      N/A     73  55  53 CALM      30.15F
ABINGDON*        N/A     73  54  50 CALM      30.15F
BRISTOL          N/A     75  52  44 N3        30.13F
KNOXVILLE      PTSUNNY   75  56  51 NE9       30.10F
OAK RIDGE        N/A     77  55  46 E6        30.12F
CROSSVILLE     PTSUNNY   73  52  47 N6        30.15S
NASHVILLE      CLOUDY    80  58  46 NE6       30.11F
$$

...KEY TO REMARKS...
VSB - VISIBILITY IN MILES
WCI - WIND CHILL INDEX
HX  - HEAT INDEX

$$


USA.gov is the U.S. government's official web portal to all federal, state and local government web resources and services.